Weather History for Galena, AK

Change the Weather History Date:

Tuesday, August 19, 2014

  Actual Average Record
Temperature  
Mean Temperature 58 °F -  
Max Temperature 64 °F 60 °F 78 °F (2007)
Min Temperature 53 °F 48 °F 27 °F (1997)
Degree Days  
Heating Degree Days 6    
Growing Degree Days 8 (Base 50)    
Moisture  
Dew Point 53 °F    
Average Humidity 84    
Maximum Humidity 94    
Minimum Humidity 64    
Precipitation  
Precipitation 0.00 in - - ()
Sea Level Pressure  
Sea Level Pressure 30.03 in    
Wind  
Wind Speed 6 mph (WSW)    
Max Wind Speed 9 mph    
Max Gust Speed -    
Visibility 10 miles    
Events Rain    
Averages and records for this station are not official NWS values.
T = Trace of Precipitation, MM = Missing Value Source: NWS Daily Summary

Daily Weather History Graph

Daily Weather History Graph

Search for Another Location

Airport:

Trip Planner

Search our weather history database for the weather conditions in past years. The results will help you decide how hot, cold, wet, or windy it might be!

Date:

Astronomy

Aug. 19, 2014 Rise Set
Actual Time 6:28 AM AKDT 10:31 PM AKDT
Civil Twilight 5:24 AM AKDT 11:34 PM AKDT
Nautical Twilight 3:20 AM AKDT 1:30 AM AKDT
Astronomical Twilight Sun does not rise Sun does not rise
Moon 12:44 AM AKDT (8/19) 7:25 PM AKDT (8/19)
Length of Visible Light 18h 10m
Length of Day
16h 03m
Waning Crescent, 28% of the Moon is Illuminated
Aug 19
Waning Crescent
Aug 25
New
Sep 2
First Quarter
Sep 8
Full
Sep 15
Last Quarter

Hourly Weather History & Observations

Time (AKDT) Temp. Dew Point Humidity Pressure Visibility Wind Dir Wind Speed Gust Speed Precip Events Conditions
12:58 AM 55.9 °F 53.1 °F 90% 29.98 in 10.0 mi WSW 9.2 mph - N/A   Overcast
1:58 AM 55.0 °F 52.0 °F 89% 29.99 in 10.0 mi WSW 8.1 mph - N/A   Scattered Clouds
2:58 AM 54.0 °F 51.1 °F 90% 29.99 in 10.0 mi WSW 6.9 mph - N/A   Mostly Cloudy
3:58 AM 54.0 °F 51.1 °F 90% 30.01 in 10.0 mi WSW 5.8 mph - N/A   Overcast
4:58 AM 54.0 °F 51.1 °F 90% 30.01 in 10.0 mi WSW 6.9 mph - N/A   Mostly Cloudy
5:58 AM 54.0 °F 51.1 °F 90% 30.02 in 10.0 mi West 6.9 mph - N/A   Partly Cloudy
6:58 AM 53.1 °F 51.1 °F 93% 30.03 in 10.0 mi WSW 6.9 mph - N/A   Mostly Cloudy
7:58 AM 54.0 °F 51.1 °F 90% 30.03 in 10.0 mi WSW 5.8 mph - N/A   Overcast
8:58 AM 55.0 °F 51.1 °F 86% 30.04 in 10.0 mi West 5.8 mph - N/A   Overcast
9:58 AM 55.9 °F 52.0 °F 87% 30.04 in 10.0 mi WSW 5.8 mph - N/A   Overcast
10:58 AM 55.9 °F 52.0 °F 87% 30.05 in 10.0 mi WSW 4.6 mph - N/A   Overcast
11:58 AM 59.0 °F 53.1 °F 81% 30.05 in 10.0 mi Calm Calm - N/A   Overcast
12:12 PM 59.0 °F 51.8 °F 77% 30.03 in 10.0 mi Calm Calm - N/A   Overcast
12:32 PM 59.0 °F 53.6 °F 82% 30.03 in 10.0 mi West 3.5 mph - N/A   Overcast
12:58 PM 61.0 °F 53.1 °F 75% 30.05 in 10.0 mi West 4.6 mph - N/A   Overcast
1:58 PM 62.1 °F 52.0 °F 70% 30.05 in 10.0 mi West 4.6 mph - N/A   Overcast
2:38 PM 62.6 °F 53.6 °F 72% 30.03 in 10.0 mi Variable 5.8 mph - N/A   Overcast
2:54 PM 64.4 °F 51.8 °F 64% 30.03 in 10.0 mi NW 4.6 mph - N/A   Mostly Cloudy
2:58 PM 63.0 °F 52.0 °F 67% 30.04 in 10.0 mi Calm Calm - N/A   Scattered Clouds
3:58 PM 63.0 °F 53.1 °F 70% 30.04 in 10.0 mi WSW 5.8 mph - N/A   Mostly Cloudy
4:58 PM 63.0 °F 53.1 °F 70% 30.04 in 10.0 mi West 8.1 mph - N/A   Mostly Cloudy
5:45 PM 60.8 °F 53.6 °F 77% 30.01 in 10.0 mi Calm Calm - N/A   Overcast
5:50 PM 60.8 °F 53.6 °F 77% 30.01 in 10.0 mi Calm Calm - N/A   Overcast
5:58 PM 62.1 °F 54.0 °F 75% 30.04 in 10.0 mi Calm Calm - N/A   Overcast
6:58 PM 60.1 °F 55.9 °F 86% 30.04 in 10.0 mi Calm Calm - N/A Rain Rain
7:58 PM 57.9 °F 54.0 °F 87% 30.04 in 10.0 mi East 5.8 mph - N/A Rain Light Rain
8:58 PM 57.0 °F 55.0 °F 93% 30.04 in 10.0 mi Calm Calm - N/A   Overcast
9:58 PM 57.0 °F 55.0 °F 93% 30.05 in 10.0 mi SW 3.5 mph - N/A   Overcast
10:58 PM 57.0 °F 55.0 °F 93% 30.06 in 10.0 mi WSW 6.9 mph - N/A Rain Rain
11:11 PM 57.2 °F 55.4 °F 94% 30.04 in 10.0 mi WSW 9.2 mph - N/A Rain Light Rain
11:36 PM 55.4 °F 53.6 °F 94% 30.05 in 10.0 mi North 3.5 mph - N/A Rain Light Rain
11:54 PM 55.4 °F 53.6 °F 94% 30.05 in 10.0 mi West 6.9 mph - N/A Rain Rain
11:58 PM 55.9 °F 53.1 °F 90% 30.07 in 10.0 mi WSW 8.1 mph - N/A Rain Rain